<?xml version="1.0" encoding="UTF-8" standalone="no" ?>
<gpx xmlns="http://www.topografix.com/GPX/1/1" xmlns:xsi="http://www.w3.org/2001/XMLSchema-instance" xsi:schemaLocation="http://www.topografix.com/GPX/1/1 http://www.topografix.com/GPX/1/1/gpx.xsd" version="1.1" creator="VisuGPX - https://www.visugpx.com">
  <metadata>
    <name>Fontaine le Port</name>
    <desc><![CDATA[Une petite randonnée sympathique du côté de Fontaines le Port]]></desc>
  </metadata>
  <trk>
    <name><![CDATA[Fontaine_le_port]]></name>
    <trkseg>
      <trkpt lat="48.48661" lon="2.75263">
        <ele>55.9</ele>
        <time>2011-05-01T14:18:38Z</time>
      </trkpt>
      <trkpt lat="48.48634" lon="2.7543">
        <ele>58.4</ele>
        <time>2011-05-01T14:18:38Z</time>
      </trkpt>
      <trkpt lat="48.48673" lon="2.75463">
        <ele>67.2</ele>
        <time>2011-05-01T14:18:38Z</time>
      </trkpt>
      <trkpt lat="48.4866" lon="2.7549">
        <ele>65.1</ele>
        <time>2011-05-01T14:18:38Z</time>
      </trkpt>
      <trkpt lat="48.4866" lon="2.75526">
        <ele>64.9</ele>
        <time>2011-05-01T14:18:38Z</time>
      </trkpt>
      <trkpt lat="48.4868" lon="2.75569">
        <ele>67.8</ele>
        <time>2011-05-01T14:18:38Z</time>
      </trkpt>
      <trkpt lat="48.48672" lon="2.7559">
        <ele>65.8</ele>
        <time>2011-05-01T14:18:38Z</time>
      </trkpt>
      <trkpt lat="48.48705" lon="2.75643">
        <ele>71.3</ele>
        <time>2011-05-01T14:18:38Z</time>
      </trkpt>
      <trkpt lat="48.48716" lon="2.75672">
        <ele>73.2</ele>
        <time>2011-05-01T14:18:38Z</time>
      </trkpt>
      <trkpt lat="48.48724" lon="2.75754">
        <ele>73.5</ele>
        <time>2011-05-01T14:18:38Z</time>
      </trkpt>
      <trkpt lat="48.48727" lon="2.75852">
        <ele>68.3</ele>
        <time>2011-05-01T14:18:38Z</time>
      </trkpt>
      <trkpt lat="48.48716" lon="2.75844">
        <ele>66.7</ele>
        <time>2011-05-01T14:18:38Z</time>
      </trkpt>
      <trkpt lat="48.48712" lon="2.75889">
        <ele>62.1</ele>
        <time>2011-05-01T14:18:38Z</time>
      </trkpt>
      <trkpt lat="48.48739" lon="2.75947">
        <ele>60.7</ele>
        <time>2011-05-01T14:18:38Z</time>
      </trkpt>
      <trkpt lat="48.48784" lon="2.75992">
        <ele>60.8</ele>
        <time>2011-05-01T14:18:38Z</time>
      </trkpt>
      <trkpt lat="48.48813" lon="2.76025">
        <ele>63.7</ele>
        <time>2011-05-01T14:18:38Z</time>
      </trkpt>
      <trkpt lat="48.4884" lon="2.76066">
        <ele>65.5</ele>
        <time>2011-05-01T14:18:38Z</time>
      </trkpt>
      <trkpt lat="48.48849" lon="2.76168">
        <ele>62.7</ele>
        <time>2011-05-01T14:18:38Z</time>
      </trkpt>
      <trkpt lat="48.48862" lon="2.76209">
        <ele>61.8</ele>
        <time>2011-05-01T14:18:38Z</time>
      </trkpt>
      <trkpt lat="48.48902" lon="2.76262">
        <ele>59.7</ele>
        <time>2011-05-01T14:18:38Z</time>
      </trkpt>
      <trkpt lat="48.48934" lon="2.76325">
        <ele>60.3</ele>
        <time>2011-05-01T14:18:38Z</time>
      </trkpt>
      <trkpt lat="48.48895" lon="2.76449">
        <ele>60.3</ele>
        <time>2011-05-01T14:18:38Z</time>
      </trkpt>
      <trkpt lat="48.48887" lon="2.76492">
        <ele>63</ele>
        <time>2011-05-01T14:18:38Z</time>
      </trkpt>
      <trkpt lat="48.48888" lon="2.7655">
        <ele>64</ele>
        <time>2011-05-01T14:18:38Z</time>
      </trkpt>
      <trkpt lat="48.48831" lon="2.76573">
        <ele>61.3</ele>
        <time>2011-05-01T14:18:38Z</time>
      </trkpt>
      <trkpt lat="48.48701" lon="2.76626">
        <ele>75.2</ele>
        <time>2011-05-01T14:18:38Z</time>
      </trkpt>
      <trkpt lat="48.48689" lon="2.76563">
        <ele>76.3</ele>
        <time>2011-05-01T14:18:38Z</time>
      </trkpt>
      <trkpt lat="48.48608" lon="2.76594">
        <ele>80.9</ele>
        <time>2011-05-01T14:18:38Z</time>
      </trkpt>
      <trkpt lat="48.48553" lon="2.76604">
        <ele>82.6</ele>
        <time>2011-05-01T14:18:38Z</time>
      </trkpt>
      <trkpt lat="48.48434" lon="2.76611">
        <ele>83.9</ele>
        <time>2011-05-01T14:18:38Z</time>
      </trkpt>
      <trkpt lat="48.48312" lon="2.76612">
        <ele>84.5</ele>
        <time>2011-05-01T14:18:38Z</time>
      </trkpt>
      <trkpt lat="48.48274" lon="2.76639">
        <ele>84.6</ele>
        <time>2011-05-01T14:18:38Z</time>
      </trkpt>
      <trkpt lat="48.48151" lon="2.76728">
        <ele>86.3</ele>
        <time>2011-05-01T14:18:38Z</time>
      </trkpt>
      <trkpt lat="48.48087" lon="2.76775">
        <ele>92.7</ele>
        <time>2011-05-01T14:18:38Z</time>
      </trkpt>
      <trkpt lat="48.47994" lon="2.76875">
        <ele>91.3</ele>
        <time>2011-05-01T14:18:38Z</time>
      </trkpt>
      <trkpt lat="48.47934" lon="2.76942">
        <ele>92.3</ele>
        <time>2011-05-01T14:18:38Z</time>
      </trkpt>
      <trkpt lat="48.47904" lon="2.76978">
        <ele>93.4</ele>
        <time>2011-05-01T14:18:38Z</time>
      </trkpt>
      <trkpt lat="48.47816" lon="2.77018">
        <ele>90.9</ele>
        <time>2011-05-01T14:18:38Z</time>
      </trkpt>
      <trkpt lat="48.47773" lon="2.77044">
        <ele>90.2</ele>
        <time>2011-05-01T14:18:38Z</time>
      </trkpt>
      <trkpt lat="48.47712" lon="2.77099">
        <ele>91.5</ele>
        <time>2011-05-01T14:18:38Z</time>
      </trkpt>
      <trkpt lat="48.47634" lon="2.77168">
        <ele>94.1</ele>
        <time>2011-05-01T14:18:38Z</time>
      </trkpt>
      <trkpt lat="48.47594" lon="2.77192">
        <ele>93</ele>
        <time>2011-05-01T14:18:38Z</time>
      </trkpt>
      <trkpt lat="48.4754" lon="2.77235">
        <ele>94.2</ele>
        <time>2011-05-01T14:18:38Z</time>
      </trkpt>
      <trkpt lat="48.47469" lon="2.77264">
        <ele>93.4</ele>
        <time>2011-05-01T14:18:38Z</time>
      </trkpt>
      <trkpt lat="48.47384" lon="2.77313">
        <ele>88.6</ele>
        <time>2011-05-01T14:18:38Z</time>
      </trkpt>
      <trkpt lat="48.47331" lon="2.77365">
        <ele>87.7</ele>
        <time>2011-05-01T14:18:38Z</time>
      </trkpt>
      <trkpt lat="48.47317" lon="2.77398">
        <ele>89</ele>
        <time>2011-05-01T14:18:38Z</time>
      </trkpt>
      <trkpt lat="48.47308" lon="2.77367">
        <ele>86.4</ele>
        <time>2011-05-01T14:18:38Z</time>
      </trkpt>
      <trkpt lat="48.47296" lon="2.77335">
        <ele>83.4</ele>
        <time>2011-05-01T14:18:38Z</time>
      </trkpt>
      <trkpt lat="48.47272" lon="2.77319">
        <ele>79</ele>
        <time>2011-05-01T14:18:38Z</time>
      </trkpt>
      <trkpt lat="48.47195" lon="2.77342">
        <ele>80.9</ele>
        <time>2011-05-01T14:18:38Z</time>
      </trkpt>
      <trkpt lat="48.47146" lon="2.77325">
        <ele>76.1</ele>
        <time>2011-05-01T14:18:38Z</time>
      </trkpt>
      <trkpt lat="48.47125" lon="2.77343">
        <ele>78.8</ele>
        <time>2011-05-01T14:18:38Z</time>
      </trkpt>
      <trkpt lat="48.47127" lon="2.77404">
        <ele>87.7</ele>
        <time>2011-05-01T14:18:38Z</time>
      </trkpt>
      <trkpt lat="48.47029" lon="2.77469">
        <ele>92</ele>
        <time>2011-05-01T14:18:38Z</time>
      </trkpt>
      <trkpt lat="48.46915" lon="2.77548">
        <ele>94.7</ele>
        <time>2011-05-01T14:18:38Z</time>
      </trkpt>
      <trkpt lat="48.46878" lon="2.77591">
        <ele>97.1</ele>
        <time>2011-05-01T14:18:38Z</time>
      </trkpt>
      <trkpt lat="48.46832" lon="2.77623">
        <ele>98.9</ele>
        <time>2011-05-01T14:18:38Z</time>
      </trkpt>
      <trkpt lat="48.46737" lon="2.77697">
        <ele>100.1</ele>
        <time>2011-05-01T14:18:38Z</time>
      </trkpt>
      <trkpt lat="48.4669" lon="2.77757">
        <ele>100.7</ele>
        <time>2011-05-01T14:18:38Z</time>
      </trkpt>
      <trkpt lat="48.46683" lon="2.77786">
        <ele>100.1</ele>
        <time>2011-05-01T14:18:38Z</time>
      </trkpt>
      <trkpt lat="48.46665" lon="2.77798">
        <ele>99.3</ele>
        <time>2011-05-01T14:18:38Z</time>
      </trkpt>
      <trkpt lat="48.4666" lon="2.77829">
        <ele>98.5</ele>
        <time>2011-05-01T14:18:38Z</time>
      </trkpt>
      <trkpt lat="48.46624" lon="2.77877">
        <ele>95.9</ele>
        <time>2011-05-01T14:18:38Z</time>
      </trkpt>
      <trkpt lat="48.46596" lon="2.77884">
        <ele>94.1</ele>
        <time>2011-05-01T14:18:38Z</time>
      </trkpt>
      <trkpt lat="48.46564" lon="2.77887">
        <ele>92.9</ele>
        <time>2011-05-01T14:18:38Z</time>
      </trkpt>
      <trkpt lat="48.46542" lon="2.77903">
        <ele>93.3</ele>
        <time>2011-05-01T14:18:38Z</time>
      </trkpt>
      <trkpt lat="48.46514" lon="2.77863">
        <ele>90.5</ele>
        <time>2011-05-01T14:18:38Z</time>
      </trkpt>
      <trkpt lat="48.4648" lon="2.77813">
        <ele>85.7</ele>
        <time>2011-05-01T14:18:38Z</time>
      </trkpt>
      <trkpt lat="48.46432" lon="2.77766">
        <ele>78.2</ele>
        <time>2011-05-01T14:18:38Z</time>
      </trkpt>
      <trkpt lat="48.4643" lon="2.77755">
        <ele>76.7</ele>
        <time>2011-05-01T14:18:38Z</time>
      </trkpt>
      <trkpt lat="48.46356" lon="2.77788">
        <ele>79.9</ele>
        <time>2011-05-01T14:18:38Z</time>
      </trkpt>
      <trkpt lat="48.46304" lon="2.77788">
        <ele>78.5</ele>
        <time>2011-05-01T14:18:38Z</time>
      </trkpt>
      <trkpt lat="48.46277" lon="2.77817">
        <ele>82.6</ele>
        <time>2011-05-01T14:18:38Z</time>
      </trkpt>
      <trkpt lat="48.46233" lon="2.77824">
        <ele>81.3</ele>
        <time>2011-05-01T14:18:38Z</time>
      </trkpt>
      <trkpt lat="48.46208" lon="2.7786">
        <ele>83.3</ele>
        <time>2011-05-01T14:18:38Z</time>
      </trkpt>
      <trkpt lat="48.46165" lon="2.77892">
        <ele>84.8</ele>
        <time>2011-05-01T14:18:38Z</time>
      </trkpt>
      <trkpt lat="48.46127" lon="2.77939">
        <ele>87.1</ele>
        <time>2011-05-01T14:18:38Z</time>
      </trkpt>
      <trkpt lat="48.46068" lon="2.77995">
        <ele>89.7</ele>
        <time>2011-05-01T14:18:38Z</time>
      </trkpt>
      <trkpt lat="48.46042" lon="2.78042">
        <ele>91.5</ele>
        <time>2011-05-01T14:18:38Z</time>
      </trkpt>
      <trkpt lat="48.46025" lon="2.78095">
        <ele>94.1</ele>
        <time>2011-05-01T14:18:38Z</time>
      </trkpt>
      <trkpt lat="48.45974" lon="2.7804">
        <ele>84.2</ele>
        <time>2011-05-01T14:18:38Z</time>
      </trkpt>
      <trkpt lat="48.45913" lon="2.77978">
        <ele>69.2</ele>
        <time>2011-05-01T14:18:38Z</time>
      </trkpt>
      <trkpt lat="48.45864" lon="2.78042">
        <ele>66.7</ele>
        <time>2011-05-01T14:18:38Z</time>
      </trkpt>
      <trkpt lat="48.45826" lon="2.78124">
        <ele>69.1</ele>
        <time>2011-05-01T14:18:38Z</time>
      </trkpt>
      <trkpt lat="48.45807" lon="2.78205">
        <ele>73.3</ele>
        <time>2011-05-01T14:18:38Z</time>
      </trkpt>
      <trkpt lat="48.45779" lon="2.78292">
        <ele>69.4</ele>
        <time>2011-05-01T14:18:38Z</time>
      </trkpt>
      <trkpt lat="48.45761" lon="2.78384">
        <ele>68.7</ele>
        <time>2011-05-01T14:18:38Z</time>
      </trkpt>
      <trkpt lat="48.45722" lon="2.78475">
        <ele>68.5</ele>
        <time>2011-05-01T14:18:38Z</time>
      </trkpt>
      <trkpt lat="48.45711" lon="2.7855">
        <ele>72</ele>
        <time>2011-05-01T14:18:38Z</time>
      </trkpt>
      <trkpt lat="48.45661" lon="2.78618">
        <ele>68.7</ele>
        <time>2011-05-01T14:18:38Z</time>
      </trkpt>
      <trkpt lat="48.4563" lon="2.78684">
        <ele>67.6</ele>
        <time>2011-05-01T14:18:38Z</time>
      </trkpt>
      <trkpt lat="48.45624" lon="2.78745">
        <ele>63.8</ele>
        <time>2011-05-01T14:18:38Z</time>
      </trkpt>
      <trkpt lat="48.45688" lon="2.78815">
        <ele>58.9</ele>
        <time>2011-05-01T14:18:38Z</time>
      </trkpt>
      <trkpt lat="48.45712" lon="2.78858">
        <ele>60.3</ele>
        <time>2011-05-01T14:18:38Z</time>
      </trkpt>
      <trkpt lat="48.45719" lon="2.78935">
        <ele>67.4</ele>
        <time>2011-05-01T14:18:38Z</time>
      </trkpt>
      <trkpt lat="48.45644" lon="2.79006">
        <ele>76.4</ele>
        <time>2011-05-01T14:18:38Z</time>
      </trkpt>
      <trkpt lat="48.45626" lon="2.79058">
        <ele>77.9</ele>
        <time>2011-05-01T14:18:38Z</time>
      </trkpt>
      <trkpt lat="48.45623" lon="2.79223">
        <ele>88.2</ele>
        <time>2011-05-01T14:18:38Z</time>
      </trkpt>
      <trkpt lat="48.4563" lon="2.79386">
        <ele>91.6</ele>
        <time>2011-05-01T14:18:38Z</time>
      </trkpt>
      <trkpt lat="48.45656" lon="2.79477">
        <ele>93.3</ele>
        <time>2011-05-01T14:18:38Z</time>
      </trkpt>
      <trkpt lat="48.45676" lon="2.79559">
        <ele>99.6</ele>
        <time>2011-05-01T14:18:38Z</time>
      </trkpt>
      <trkpt lat="48.45698" lon="2.79584">
        <ele>102.9</ele>
        <time>2011-05-01T14:18:38Z</time>
      </trkpt>
      <trkpt lat="48.45852" lon="2.79457">
        <ele>86</ele>
        <time>2011-05-01T14:18:38Z</time>
      </trkpt>
      <trkpt lat="48.45921" lon="2.79611">
        <ele>84.1</ele>
        <time>2011-05-01T14:18:38Z</time>
      </trkpt>
      <trkpt lat="48.45982" lon="2.79821">
        <ele>84.3</ele>
        <time>2011-05-01T14:18:38Z</time>
      </trkpt>
      <trkpt lat="48.46024" lon="2.79961">
        <ele>87.5</ele>
        <time>2011-05-01T14:18:38Z</time>
      </trkpt>
      <trkpt lat="48.46" lon="2.79998">
        <ele>88.9</ele>
        <time>2011-05-01T14:18:38Z</time>
      </trkpt>
      <trkpt lat="48.46003" lon="2.80053">
        <ele>90.2</ele>
        <time>2011-05-01T14:18:38Z</time>
      </trkpt>
      <trkpt lat="48.46015" lon="2.80105">
        <ele>91.7</ele>
        <time>2011-05-01T14:18:38Z</time>
      </trkpt>
      <trkpt lat="48.46022" lon="2.80172">
        <ele>94.8</ele>
        <time>2011-05-01T14:18:38Z</time>
      </trkpt>
      <trkpt lat="48.46079" lon="2.80176">
        <ele>96.1</ele>
        <time>2011-05-01T14:18:38Z</time>
      </trkpt>
      <trkpt lat="48.46157" lon="2.80092">
        <ele>87.8</ele>
        <time>2011-05-01T14:18:38Z</time>
      </trkpt>
      <trkpt lat="48.46209" lon="2.79989">
        <ele>78.7</ele>
        <time>2011-05-01T14:18:38Z</time>
      </trkpt>
      <trkpt lat="48.46246" lon="2.79955">
        <ele>70.5</ele>
        <time>2011-05-01T14:18:38Z</time>
      </trkpt>
      <trkpt lat="48.46311" lon="2.80011">
        <ele>66</ele>
        <time>2011-05-01T14:18:38Z</time>
      </trkpt>
      <trkpt lat="48.46396" lon="2.80095">
        <ele>64.9</ele>
        <time>2011-05-01T14:18:38Z</time>
      </trkpt>
      <trkpt lat="48.46417" lon="2.80173">
        <ele>63.2</ele>
        <time>2011-05-01T14:18:38Z</time>
      </trkpt>
      <trkpt lat="48.46439" lon="2.80233">
        <ele>66.8</ele>
        <time>2011-05-01T14:18:38Z</time>
      </trkpt>
      <trkpt lat="48.46519" lon="2.80421">
        <ele>65</ele>
        <time>2011-05-01T14:18:38Z</time>
      </trkpt>
      <trkpt lat="48.46574" lon="2.80559">
        <ele>67.6</ele>
        <time>2011-05-01T14:18:38Z</time>
      </trkpt>
      <trkpt lat="48.46571" lon="2.80603">
        <ele>70.1</ele>
        <time>2011-05-01T14:18:38Z</time>
      </trkpt>
      <trkpt lat="48.465" lon="2.80629">
        <ele>80.8</ele>
        <time>2011-05-01T14:18:38Z</time>
      </trkpt>
      <trkpt lat="48.46518" lon="2.8073">
        <ele>79.6</ele>
        <time>2011-05-01T14:18:38Z</time>
      </trkpt>
      <trkpt lat="48.46508" lon="2.80871">
        <ele>78.1</ele>
        <time>2011-05-01T14:18:38Z</time>
      </trkpt>
      <trkpt lat="48.4651" lon="2.80971">
        <ele>79.2</ele>
        <time>2011-05-01T14:18:38Z</time>
      </trkpt>
      <trkpt lat="48.46537" lon="2.8111">
        <ele>79.9</ele>
        <time>2011-05-01T14:18:38Z</time>
      </trkpt>
      <trkpt lat="48.46582" lon="2.81214">
        <ele>72.6</ele>
        <time>2011-05-01T14:18:38Z</time>
      </trkpt>
      <trkpt lat="48.46644" lon="2.81288">
        <ele>70</ele>
        <time>2011-05-01T14:18:38Z</time>
      </trkpt>
      <trkpt lat="48.46716" lon="2.81302">
        <ele>76.9</ele>
        <time>2011-05-01T14:18:38Z</time>
      </trkpt>
      <trkpt lat="48.46761" lon="2.81315">
        <ele>83.9</ele>
        <time>2011-05-01T14:18:38Z</time>
      </trkpt>
      <trkpt lat="48.4678" lon="2.81387">
        <ele>85.9</ele>
        <time>2011-05-01T14:18:38Z</time>
      </trkpt>
      <trkpt lat="48.4683" lon="2.8144">
        <ele>92.7</ele>
        <time>2011-05-01T14:18:38Z</time>
      </trkpt>
      <trkpt lat="48.46941" lon="2.81415">
        <ele>94.2</ele>
        <time>2011-05-01T14:18:38Z</time>
      </trkpt>
      <trkpt lat="48.47099" lon="2.81349">
        <ele>107.1</ele>
        <time>2011-05-01T14:18:38Z</time>
      </trkpt>
      <trkpt lat="48.47326" lon="2.81737">
        <ele>112.8</ele>
        <time>2011-05-01T14:18:38Z</time>
      </trkpt>
      <trkpt lat="48.47471" lon="2.82003">
        <ele>110.6</ele>
        <time>2011-05-01T14:18:38Z</time>
      </trkpt>
      <trkpt lat="48.47462" lon="2.82049">
        <ele>110.5</ele>
        <time>2011-05-01T14:18:38Z</time>
      </trkpt>
      <trkpt lat="48.47282" lon="2.82224">
        <ele>113.7</ele>
        <time>2011-05-01T14:18:38Z</time>
      </trkpt>
      <trkpt lat="48.47108" lon="2.82394">
        <ele>109.5</ele>
        <time>2011-05-01T14:18:38Z</time>
      </trkpt>
      <trkpt lat="48.47108" lon="2.82719">
        <ele>104.6</ele>
        <time>2011-05-01T14:18:38Z</time>
      </trkpt>
      <trkpt lat="48.46684" lon="2.82727">
        <ele>102.5</ele>
        <time>2011-05-01T14:18:38Z</time>
      </trkpt>
      <trkpt lat="48.46682" lon="2.82815">
        <ele>102.4</ele>
        <time>2011-05-01T14:18:38Z</time>
      </trkpt>
      <trkpt lat="48.46657" lon="2.82946">
        <ele>99.9</ele>
        <time>2011-05-01T14:18:38Z</time>
      </trkpt>
      <trkpt lat="48.46603" lon="2.82998">
        <ele>98.8</ele>
        <time>2011-05-01T14:18:38Z</time>
      </trkpt>
      <trkpt lat="48.46557" lon="2.83051">
        <ele>94.7</ele>
        <time>2011-05-01T14:18:38Z</time>
      </trkpt>
      <trkpt lat="48.46505" lon="2.83167">
        <ele>89.1</ele>
        <time>2011-05-01T14:18:38Z</time>
      </trkpt>
      <trkpt lat="48.46478" lon="2.83144">
        <ele>87.9</ele>
        <time>2011-05-01T14:18:38Z</time>
      </trkpt>
      <trkpt lat="48.46462" lon="2.83007">
        <ele>84.7</ele>
        <time>2011-05-01T14:18:38Z</time>
      </trkpt>
      <trkpt lat="48.4644" lon="2.82958">
        <ele>81.2</ele>
        <time>2011-05-01T14:18:38Z</time>
      </trkpt>
      <trkpt lat="48.46287" lon="2.82851">
        <ele>81.1</ele>
        <time>2011-05-01T14:18:38Z</time>
      </trkpt>
      <trkpt lat="48.46256" lon="2.82838">
        <ele>82.8</ele>
        <time>2011-05-01T14:18:38Z</time>
      </trkpt>
      <trkpt lat="48.4617" lon="2.82851">
        <ele>91.7</ele>
        <time>2011-05-01T14:18:38Z</time>
      </trkpt>
      <trkpt lat="48.46138" lon="2.82903">
        <ele>94.1</ele>
        <time>2011-05-01T14:18:38Z</time>
      </trkpt>
      <trkpt lat="48.46087" lon="2.82936">
        <ele>97.6</ele>
        <time>2011-05-01T14:18:38Z</time>
      </trkpt>
      <trkpt lat="48.46032" lon="2.83143">
        <ele>98.3</ele>
        <time>2011-05-01T14:18:38Z</time>
      </trkpt>
      <trkpt lat="48.46063" lon="2.83201">
        <ele>91.9</ele>
        <time>2011-05-01T14:18:38Z</time>
      </trkpt>
      <trkpt lat="48.46108" lon="2.83392">
        <ele>81</ele>
        <time>2011-05-01T14:18:38Z</time>
      </trkpt>
      <trkpt lat="48.46198" lon="2.83572">
        <ele>85.4</ele>
        <time>2011-05-01T14:18:38Z</time>
      </trkpt>
      <trkpt lat="48.46275" lon="2.83591">
        <ele>81.7</ele>
        <time>2011-05-01T14:18:38Z</time>
      </trkpt>
      <trkpt lat="48.46379" lon="2.83547">
        <ele>80.3</ele>
        <time>2011-05-01T14:18:38Z</time>
      </trkpt>
      <trkpt lat="48.46454" lon="2.83527">
        <ele>84.4</ele>
        <time>2011-05-01T14:18:38Z</time>
      </trkpt>
      <trkpt lat="48.46478" lon="2.83558">
        <ele>88.2</ele>
        <time>2011-05-01T14:18:38Z</time>
      </trkpt>
      <trkpt lat="48.4646" lon="2.83636">
        <ele>90.2</ele>
        <time>2011-05-01T14:18:38Z</time>
      </trkpt>
      <trkpt lat="48.46419" lon="2.83743">
        <ele>91.6</ele>
        <time>2011-05-01T14:18:38Z</time>
      </trkpt>
      <trkpt lat="48.46361" lon="2.83825">
        <ele>89.7</ele>
        <time>2011-05-01T14:18:38Z</time>
      </trkpt>
      <trkpt lat="48.46344" lon="2.83909">
        <ele>92.9</ele>
        <time>2011-05-01T14:18:38Z</time>
      </trkpt>
      <trkpt lat="48.46388" lon="2.84049">
        <ele>97.2</ele>
        <time>2011-05-01T14:18:38Z</time>
      </trkpt>
      <trkpt lat="48.46431" lon="2.84172">
        <ele>101</ele>
        <time>2011-05-01T14:18:38Z</time>
      </trkpt>
      <trkpt lat="48.46438" lon="2.84337">
        <ele>104.5</ele>
        <time>2011-05-01T14:18:38Z</time>
      </trkpt>
      <trkpt lat="48.4643" lon="2.84429">
        <ele>103.9</ele>
        <time>2011-05-01T14:18:38Z</time>
      </trkpt>
      <trkpt lat="48.46463" lon="2.84549">
        <ele>106.8</ele>
        <time>2011-05-01T14:18:38Z</time>
      </trkpt>
      <trkpt lat="48.46466" lon="2.84697">
        <ele>111.8</ele>
        <time>2011-05-01T14:18:38Z</time>
      </trkpt>
      <trkpt lat="48.46473" lon="2.84807">
        <ele>113</ele>
        <time>2011-05-01T14:18:38Z</time>
      </trkpt>
      <trkpt lat="48.46408" lon="2.85015">
        <ele>113.1</ele>
        <time>2011-05-01T14:18:38Z</time>
      </trkpt>
      <trkpt lat="48.46336" lon="2.85207">
        <ele>113.1</ele>
        <time>2011-05-01T14:18:38Z</time>
      </trkpt>
      <trkpt lat="48.4629" lon="2.85344">
        <ele>118.4</ele>
        <time>2011-05-01T14:18:38Z</time>
      </trkpt>
      <trkpt lat="48.46268" lon="2.85406">
        <ele>120.7</ele>
        <time>2011-05-01T14:18:38Z</time>
      </trkpt>
      <trkpt lat="48.46208" lon="2.8536">
        <ele>115.1</ele>
        <time>2011-05-01T14:18:38Z</time>
      </trkpt>
      <trkpt lat="48.46196" lon="2.85503">
        <ele>110.9</ele>
        <time>2011-05-01T14:18:38Z</time>
      </trkpt>
      <trkpt lat="48.46171" lon="2.85678">
        <ele>115.7</ele>
        <time>2011-05-01T14:18:38Z</time>
      </trkpt>
      <trkpt lat="48.46164" lon="2.85913">
        <ele>111.1</ele>
        <time>2011-05-01T14:18:38Z</time>
      </trkpt>
      <trkpt lat="48.46159" lon="2.86276">
        <ele>102.5</ele>
        <time>2011-05-01T14:18:38Z</time>
      </trkpt>
      <trkpt lat="48.46189" lon="2.86323">
        <ele>104.2</ele>
        <time>2011-05-01T14:18:38Z</time>
      </trkpt>
      <trkpt lat="48.46159" lon="2.8635">
        <ele>103.6</ele>
        <time>2011-05-01T14:18:38Z</time>
      </trkpt>
      <trkpt lat="48.46132" lon="2.86388">
        <ele>104.8</ele>
        <time>2011-05-01T14:18:38Z</time>
      </trkpt>
      <trkpt lat="48.46097" lon="2.86507">
        <ele>106.1</ele>
        <time>2011-05-01T14:18:38Z</time>
      </trkpt>
      <trkpt lat="48.46078" lon="2.86576">
        <ele>109.8</ele>
        <time>2011-05-01T14:18:38Z</time>
      </trkpt>
      <trkpt lat="48.46034" lon="2.86644">
        <ele>113.5</ele>
        <time>2011-05-01T14:18:38Z</time>
      </trkpt>
      <trkpt lat="48.46043" lon="2.86719">
        <ele>115.2</ele>
        <time>2011-05-01T14:18:38Z</time>
      </trkpt>
      <trkpt lat="48.46044" lon="2.86835">
        <ele>118</ele>
        <time>2011-05-01T14:18:38Z</time>
      </trkpt>
      <trkpt lat="48.4604" lon="2.86973">
        <ele>121.3</ele>
        <time>2011-05-01T14:18:38Z</time>
      </trkpt>
      <trkpt lat="48.46047" lon="2.87033">
        <ele>121.2</ele>
        <time>2011-05-01T14:18:38Z</time>
      </trkpt>
      <trkpt lat="48.45946" lon="2.87047">
        <ele>121.5</ele>
        <time>2011-05-01T14:18:38Z</time>
      </trkpt>
      <trkpt lat="48.45873" lon="2.87056">
        <ele>121</ele>
        <time>2011-05-01T14:18:38Z</time>
      </trkpt>
      <trkpt lat="48.45817" lon="2.87078">
        <ele>120.2</ele>
        <time>2011-05-01T14:18:38Z</time>
      </trkpt>
      <trkpt lat="48.45708" lon="2.87088">
        <ele>120</ele>
        <time>2011-05-01T14:18:38Z</time>
      </trkpt>
      <trkpt lat="48.45658" lon="2.87084">
        <ele>118.8</ele>
        <time>2011-05-01T14:18:38Z</time>
      </trkpt>
      <trkpt lat="48.45586" lon="2.87045">
        <ele>116.6</ele>
        <time>2011-05-01T14:18:38Z</time>
      </trkpt>
      <trkpt lat="48.45527" lon="2.87115">
        <ele>115.6</ele>
        <time>2011-05-01T14:18:38Z</time>
      </trkpt>
      <trkpt lat="48.45421" lon="2.87047">
        <ele>110.4</ele>
        <time>2011-05-01T14:18:38Z</time>
      </trkpt>
      <trkpt lat="48.45268" lon="2.86951">
        <ele>101.4</ele>
        <time>2011-05-01T14:18:38Z</time>
      </trkpt>
      <trkpt lat="48.45227" lon="2.87029">
        <ele>100.7</ele>
        <time>2011-05-01T14:18:38Z</time>
      </trkpt>
      <trkpt lat="48.45182" lon="2.87186">
        <ele>100.2</ele>
        <time>2011-05-01T14:18:38Z</time>
      </trkpt>
      <trkpt lat="48.45101" lon="2.87352">
        <ele>105.7</ele>
        <time>2011-05-01T14:18:38Z</time>
      </trkpt>
      <trkpt lat="48.45017" lon="2.87494">
        <ele>100.1</ele>
        <time>2011-05-01T14:18:38Z</time>
      </trkpt>
      <trkpt lat="48.44909" lon="2.87664">
        <ele>101.8</ele>
        <time>2011-05-01T14:18:38Z</time>
      </trkpt>
      <trkpt lat="48.44824" lon="2.8782">
        <ele>104.9</ele>
        <time>2011-05-01T14:18:38Z</time>
      </trkpt>
      <trkpt lat="48.44791" lon="2.87857">
        <ele>103.2</ele>
        <time>2011-05-01T14:18:38Z</time>
      </trkpt>
      <trkpt lat="48.44745" lon="2.88079">
        <ele>99.5</ele>
        <time>2011-05-01T14:18:38Z</time>
      </trkpt>
      <trkpt lat="48.44662" lon="2.88252">
        <ele>94.8</ele>
        <time>2011-05-01T14:18:38Z</time>
      </trkpt>
      <trkpt lat="48.446" lon="2.88407">
        <ele>93.6</ele>
        <time>2011-05-01T14:18:38Z</time>
      </trkpt>
      <trkpt lat="48.44572" lon="2.88502">
        <ele>95.3</ele>
        <time>2011-05-01T14:18:38Z</time>
      </trkpt>
      <trkpt lat="48.44565" lon="2.88593">
        <ele>95.6</ele>
        <time>2011-05-01T14:18:38Z</time>
      </trkpt>
      <trkpt lat="48.44554" lon="2.88705">
        <ele>95.3</ele>
        <time>2011-05-01T14:18:38Z</time>
      </trkpt>
      <trkpt lat="48.44553" lon="2.88818">
        <ele>94.9</ele>
        <time>2011-05-01T14:18:38Z</time>
      </trkpt>
      <trkpt lat="48.44532" lon="2.88841">
        <ele>95</ele>
        <time>2011-05-01T14:18:38Z</time>
      </trkpt>
      <trkpt lat="48.44419" lon="2.88837">
        <ele>97.1</ele>
        <time>2011-05-01T14:18:38Z</time>
      </trkpt>
      <trkpt lat="48.44382" lon="2.88836">
        <ele>97.5</ele>
        <time>2011-05-01T14:18:38Z</time>
      </trkpt>
      <trkpt lat="48.44342" lon="2.88865">
        <ele>99</ele>
        <time>2011-05-01T14:18:38Z</time>
      </trkpt>
      <trkpt lat="48.44265" lon="2.88871">
        <ele>98.2</ele>
        <time>2011-05-01T14:18:38Z</time>
      </trkpt>
      <trkpt lat="48.44211" lon="2.88885">
        <ele>98.1</ele>
        <time>2011-05-01T14:18:38Z</time>
      </trkpt>
      <trkpt lat="48.44199" lon="2.88865">
        <ele>97.9</ele>
        <time>2011-05-01T14:18:38Z</time>
      </trkpt>
      <trkpt lat="48.4418" lon="2.8887">
        <ele>98</ele>
        <time>2011-05-01T14:18:38Z</time>
      </trkpt>
      <trkpt lat="48.44165" lon="2.88859">
        <ele>98</ele>
        <time>2011-05-01T14:18:38Z</time>
      </trkpt>
      <trkpt lat="48.44145" lon="2.88826">
        <ele>98.8</ele>
        <time>2011-05-01T14:18:38Z</time>
      </trkpt>
      <trkpt lat="48.44093" lon="2.88802">
        <ele>100.6</ele>
        <time>2011-05-01T14:18:38Z</time>
      </trkpt>
      <trkpt lat="48.44018" lon="2.88789">
        <ele>104.1</ele>
        <time>2011-05-01T14:18:38Z</time>
      </trkpt>
      <trkpt lat="48.43982" lon="2.88781">
        <ele>106.1</ele>
        <time>2011-05-01T14:18:38Z</time>
      </trkpt>
      <trkpt lat="48.44007" lon="2.88619">
        <ele>107.5</ele>
        <time>2011-05-01T14:18:38Z</time>
      </trkpt>
      <trkpt lat="48.43994" lon="2.88587">
        <ele>108</ele>
        <time>2011-05-01T14:18:38Z</time>
      </trkpt>
      <trkpt lat="48.43953" lon="2.88571">
        <ele>108.8</ele>
        <time>2011-05-01T14:18:38Z</time>
      </trkpt>
      <trkpt lat="48.43884" lon="2.8855">
        <ele>113.8</ele>
        <time>2011-05-01T14:18:38Z</time>
      </trkpt>
      <trkpt lat="48.43824" lon="2.8898">
        <ele>117.6</ele>
        <time>2011-05-01T14:18:38Z</time>
      </trkpt>
      <trkpt lat="48.4335" lon="2.88779">
        <ele>118.3</ele>
        <time>2011-05-01T14:18:38Z</time>
      </trkpt>
      <trkpt lat="48.43069" lon="2.88578">
        <ele>117.2</ele>
        <time>2011-05-01T14:18:38Z</time>
      </trkpt>
      <trkpt lat="48.42607" lon="2.88252">
        <ele>120.1</ele>
        <time>2011-05-01T14:18:38Z</time>
      </trkpt>
      <trkpt lat="48.42283" lon="2.88036">
        <ele>127.5</ele>
        <time>2011-05-01T14:18:38Z</time>
      </trkpt>
      <trkpt lat="48.41862" lon="2.87911">
        <ele>119.3</ele>
        <time>2011-05-01T14:18:38Z</time>
      </trkpt>
      <trkpt lat="48.41789" lon="2.87879">
        <ele>116.7</ele>
        <time>2011-05-01T14:18:38Z</time>
      </trkpt>
      <trkpt lat="48.41724" lon="2.87868">
        <ele>116.2</ele>
        <time>2011-05-01T14:18:38Z</time>
      </trkpt>
      <trkpt lat="48.41593" lon="2.88016">
        <ele>115</ele>
        <time>2011-05-01T14:18:38Z</time>
      </trkpt>
      <trkpt lat="48.41499" lon="2.8812">
        <ele>116.6</ele>
        <time>2011-05-01T14:18:38Z</time>
      </trkpt>
      <trkpt lat="48.41381" lon="2.88243">
        <ele>115.1</ele>
        <time>2011-05-01T14:18:38Z</time>
      </trkpt>
      <trkpt lat="48.41356" lon="2.88546">
        <ele>112.6</ele>
        <time>2011-05-01T14:18:38Z</time>
      </trkpt>
      <trkpt lat="48.41339" lon="2.88835">
        <ele>116.9</ele>
        <time>2011-05-01T14:18:38Z</time>
      </trkpt>
      <trkpt lat="48.41273" lon="2.88774">
        <ele>114.2</ele>
        <time>2011-05-01T14:18:38Z</time>
      </trkpt>
      <trkpt lat="48.41164" lon="2.88719">
        <ele>118.2</ele>
        <time>2011-05-01T14:18:38Z</time>
      </trkpt>
      <trkpt lat="48.41122" lon="2.88558">
        <ele>120.3</ele>
        <time>2011-05-01T14:18:38Z</time>
      </trkpt>
      <trkpt lat="48.40967" lon="2.88694">
        <ele>118</ele>
        <time>2011-05-01T14:18:38Z</time>
      </trkpt>
      <trkpt lat="48.40923" lon="2.88776">
        <ele>118.9</ele>
        <time>2011-05-01T14:18:38Z</time>
      </trkpt>
      <trkpt lat="48.40905" lon="2.88793">
        <ele>118.7</ele>
        <time>2011-05-01T14:18:38Z</time>
      </trkpt>
      <trkpt lat="48.4079" lon="2.8879">
        <ele>111.4</ele>
        <time>2011-05-01T14:18:38Z</time>
      </trkpt>
      <trkpt lat="48.40614" lon="2.88734">
        <ele>108.3</ele>
        <time>2011-05-01T14:18:38Z</time>
      </trkpt>
      <trkpt lat="48.40494" lon="2.88641">
        <ele>107.6</ele>
        <time>2011-05-01T14:18:38Z</time>
      </trkpt>
      <trkpt lat="48.40439" lon="2.88593">
        <ele>107</ele>
        <time>2011-05-01T14:18:38Z</time>
      </trkpt>
      <trkpt lat="48.40354" lon="2.88584">
        <ele>105.5</ele>
        <time>2011-05-01T14:18:38Z</time>
      </trkpt>
      <trkpt lat="48.40257" lon="2.88525">
        <ele>104.4</ele>
        <time>2011-05-01T14:18:38Z</time>
      </trkpt>
      <trkpt lat="48.40254" lon="2.88499">
        <ele>104</ele>
        <time>2011-05-01T14:18:38Z</time>
      </trkpt>
      <trkpt lat="48.4026" lon="2.88415">
        <ele>102.3</ele>
        <time>2011-05-01T14:18:38Z</time>
      </trkpt>
      <trkpt lat="48.40256" lon="2.88344">
        <ele>102.2</ele>
        <time>2011-05-01T14:18:38Z</time>
      </trkpt>
      <trkpt lat="48.40124" lon="2.88403">
        <ele>99.2</ele>
        <time>2011-05-01T14:18:38Z</time>
      </trkpt>
      <trkpt lat="48.39988" lon="2.8845">
        <ele>103.7</ele>
        <time>2011-05-01T14:18:38Z</time>
      </trkpt>
      <trkpt lat="48.39883" lon="2.8845">
        <ele>106.9</ele>
        <time>2011-05-01T14:18:38Z</time>
      </trkpt>
      <trkpt lat="48.39727" lon="2.88504">
        <ele>108</ele>
        <time>2011-05-01T14:18:38Z</time>
      </trkpt>
      <trkpt lat="48.39595" lon="2.88553">
        <ele>107.9</ele>
        <time>2011-05-01T14:18:38Z</time>
      </trkpt>
      <trkpt lat="48.39477" lon="2.88589">
        <ele>108.9</ele>
        <time>2011-05-01T14:18:38Z</time>
      </trkpt>
      <trkpt lat="48.39359" lon="2.88614">
        <ele>108.9</ele>
        <time>2011-05-01T14:18:38Z</time>
      </trkpt>
      <trkpt lat="48.39309" lon="2.88614">
        <ele>109.6</ele>
        <time>2011-05-01T14:18:38Z</time>
      </trkpt>
      <trkpt lat="48.39276" lon="2.88245">
        <ele>107.6</ele>
        <time>2011-05-01T14:18:38Z</time>
      </trkpt>
      <trkpt lat="48.39164" lon="2.88138">
        <ele>106.3</ele>
        <time>2011-05-01T14:18:38Z</time>
      </trkpt>
      <trkpt lat="48.39075" lon="2.88081">
        <ele>101.9</ele>
        <time>2011-05-01T14:18:38Z</time>
      </trkpt>
      <trkpt lat="48.39041" lon="2.88053">
        <ele>100.9</ele>
        <time>2011-05-01T14:18:38Z</time>
      </trkpt>
      <trkpt lat="48.38958" lon="2.88097">
        <ele>101.8</ele>
        <time>2011-05-01T14:18:38Z</time>
      </trkpt>
      <trkpt lat="48.38933" lon="2.88097">
        <ele>101.2</ele>
        <time>2011-05-01T14:18:38Z</time>
      </trkpt>
      <trkpt lat="48.38915" lon="2.88099">
        <ele>100.9</ele>
        <time>2011-05-01T14:18:38Z</time>
      </trkpt>
      <trkpt lat="48.38907" lon="2.88043">
        <ele>95.9</ele>
        <time>2011-05-01T14:18:38Z</time>
      </trkpt>
      <trkpt lat="48.38946" lon="2.87984">
        <ele>92.8</ele>
        <time>2011-05-01T14:18:38Z</time>
      </trkpt>
      <trkpt lat="48.38967" lon="2.87955">
        <ele>92.1</ele>
        <time>2011-05-01T14:18:38Z</time>
      </trkpt>
      <trkpt lat="48.3897" lon="2.87926">
        <ele>90.1</ele>
        <time>2011-05-01T14:18:38Z</time>
      </trkpt>
      <trkpt lat="48.38944" lon="2.8791">
        <ele>87.1</ele>
        <time>2011-05-01T14:18:38Z</time>
      </trkpt>
      <trkpt lat="48.38897" lon="2.87856">
        <ele>84.4</ele>
        <time>2011-05-01T14:18:38Z</time>
      </trkpt>
      <trkpt lat="48.3887" lon="2.87811">
        <ele>84.1</ele>
        <time>2011-05-01T14:18:38Z</time>
      </trkpt>
      <trkpt lat="48.38851" lon="2.87731">
        <ele>85.9</ele>
        <time>2011-05-01T14:18:38Z</time>
      </trkpt>
      <trkpt lat="48.38822" lon="2.87677">
        <ele>86.7</ele>
        <time>2011-05-01T14:18:38Z</time>
      </trkpt>
      <trkpt lat="48.38793" lon="2.87659">
        <ele>84.7</ele>
        <time>2011-05-01T14:18:38Z</time>
      </trkpt>
      <trkpt lat="48.38741" lon="2.87636">
        <ele>81.1</ele>
        <time>2011-05-01T14:18:38Z</time>
      </trkpt>
      <trkpt lat="48.38709" lon="2.87591">
        <ele>80.1</ele>
        <time>2011-05-01T14:18:38Z</time>
      </trkpt>
      <trkpt lat="48.38692" lon="2.87521">
        <ele>81</ele>
        <time>2011-05-01T14:18:38Z</time>
      </trkpt>
      <trkpt lat="48.38652" lon="2.87389">
        <ele>80.7</ele>
        <time>2011-05-01T14:18:38Z</time>
      </trkpt>
      <trkpt lat="48.38641" lon="2.87327">
        <ele>80.6</ele>
        <time>2011-05-01T14:18:38Z</time>
      </trkpt>
      <trkpt lat="48.38614" lon="2.87217">
        <ele>77.6</ele>
        <time>2011-05-01T14:18:38Z</time>
      </trkpt>
      <trkpt lat="48.38587" lon="2.87152">
        <ele>74.7</ele>
        <time>2011-05-01T14:18:38Z</time>
      </trkpt>
      <trkpt lat="48.38542" lon="2.87076">
        <ele>72.1</ele>
        <time>2011-05-01T14:18:38Z</time>
      </trkpt>
      <trkpt lat="48.38482" lon="2.86901">
        <ele>71.8</ele>
        <time>2011-05-01T14:18:38Z</time>
      </trkpt>
      <trkpt lat="48.3845" lon="2.86841">
        <ele>72.1</ele>
        <time>2011-05-01T14:18:38Z</time>
      </trkpt>
      <trkpt lat="48.3842" lon="2.86798">
        <ele>71.6</ele>
        <time>2011-05-01T14:18:38Z</time>
      </trkpt>
      <trkpt lat="48.38379" lon="2.86692">
        <ele>75.5</ele>
        <time>2011-05-01T14:18:38Z</time>
      </trkpt>
      <trkpt lat="48.38372" lon="2.86601">
        <ele>78.8</ele>
        <time>2011-05-01T14:18:38Z</time>
      </trkpt>
      <trkpt lat="48.38347" lon="2.8651">
        <ele>76.2</ele>
        <time>2011-05-01T14:18:38Z</time>
      </trkpt>
      <trkpt lat="48.38316" lon="2.86468">
        <ele>74.7</ele>
        <time>2011-05-01T14:18:38Z</time>
      </trkpt>
      <trkpt lat="48.3827" lon="2.86366">
        <ele>72.1</ele>
        <time>2011-05-01T14:18:38Z</time>
      </trkpt>
      <trkpt lat="48.38253" lon="2.86292">
        <ele>69.9</ele>
        <time>2011-05-01T14:18:38Z</time>
      </trkpt>
      <trkpt lat="48.3824" lon="2.86119">
        <ele>71.8</ele>
        <time>2011-05-01T14:18:38Z</time>
      </trkpt>
      <trkpt lat="48.38234" lon="2.86032">
        <ele>69.7</ele>
        <time>2011-05-01T14:18:38Z</time>
      </trkpt>
      <trkpt lat="48.38293" lon="2.86011">
        <ele>80</ele>
        <time>2011-05-01T14:18:38Z</time>
      </trkpt>
      <trkpt lat="48.38302" lon="2.85987">
        <ele>81.7</ele>
        <time>2011-05-01T14:18:38Z</time>
      </trkpt>
      <trkpt lat="48.38296" lon="2.85864">
        <ele>82</ele>
        <time>2011-05-01T14:18:38Z</time>
      </trkpt>
      <trkpt lat="48.38285" lon="2.85768">
        <ele>82.3</ele>
        <time>2011-05-01T14:18:38Z</time>
      </trkpt>
      <trkpt lat="48.38302" lon="2.85697">
        <ele>85.6</ele>
        <time>2011-05-01T14:18:38Z</time>
      </trkpt>
      <trkpt lat="48.38368" lon="2.8562">
        <ele>88.7</ele>
        <time>2011-05-01T14:18:38Z</time>
      </trkpt>
      <trkpt lat="48.38489" lon="2.8548">
        <ele>86.1</ele>
        <time>2011-05-01T14:18:38Z</time>
      </trkpt>
      <trkpt lat="48.38565" lon="2.85368">
        <ele>84.4</ele>
        <time>2011-05-01T14:18:38Z</time>
      </trkpt>
      <trkpt lat="48.38592" lon="2.85326">
        <ele>84.1</ele>
        <time>2011-05-01T14:18:38Z</time>
      </trkpt>
      <trkpt lat="48.3858" lon="2.85275">
        <ele>82.5</ele>
        <time>2011-05-01T14:18:38Z</time>
      </trkpt>
      <trkpt lat="48.387" lon="2.85146">
        <ele>87</ele>
        <time>2011-05-01T14:18:38Z</time>
      </trkpt>
      <trkpt lat="48.387" lon="2.85126">
        <ele>86.7</ele>
        <time>2011-05-01T14:18:38Z</time>
      </trkpt>
      <trkpt lat="48.38643" lon="2.85057">
        <ele>83.8</ele>
        <time>2011-05-01T14:18:38Z</time>
      </trkpt>
      <trkpt lat="48.38748" lon="2.84886">
        <ele>82.2</ele>
        <time>2011-05-01T14:18:38Z</time>
      </trkpt>
      <trkpt lat="48.38781" lon="2.84832">
        <ele>81.7</ele>
        <time>2011-05-01T14:18:38Z</time>
      </trkpt>
      <trkpt lat="48.38883" lon="2.84716">
        <ele>82.4</ele>
        <time>2011-05-01T14:18:38Z</time>
      </trkpt>
      <trkpt lat="48.38889" lon="2.84688">
        <ele>82.4</ele>
        <time>2011-05-01T14:18:38Z</time>
      </trkpt>
      <trkpt lat="48.38949" lon="2.8463">
        <ele>83.3</ele>
        <time>2011-05-01T14:18:38Z</time>
      </trkpt>
      <trkpt lat="48.38974" lon="2.84694">
        <ele>84.8</ele>
        <time>2011-05-01T14:18:38Z</time>
      </trkpt>
      <trkpt lat="48.39" lon="2.84604">
        <ele>84.2</ele>
        <time>2011-05-01T14:18:38Z</time>
      </trkpt>
      <trkpt lat="48.39091" lon="2.84499">
        <ele>85.1</ele>
        <time>2011-05-01T14:18:38Z</time>
      </trkpt>
      <trkpt lat="48.3911" lon="2.84465">
        <ele>84.1</ele>
        <time>2011-05-01T14:18:38Z</time>
      </trkpt>
      <trkpt lat="48.39071" lon="2.84375">
        <ele>79.9</ele>
        <time>2011-05-01T14:18:38Z</time>
      </trkpt>
      <trkpt lat="48.39127" lon="2.84277">
        <ele>79.2</ele>
        <time>2011-05-01T14:18:38Z</time>
      </trkpt>
      <trkpt lat="48.3918" lon="2.84205">
        <ele>83.5</ele>
        <time>2011-05-01T14:18:38Z</time>
      </trkpt>
      <trkpt lat="48.39259" lon="2.84064">
        <ele>91.3</ele>
        <time>2011-05-01T14:18:38Z</time>
      </trkpt>
      <trkpt lat="48.39277" lon="2.83983">
        <ele>91.3</ele>
        <time>2011-05-01T14:18:38Z</time>
      </trkpt>
      <trkpt lat="48.39359" lon="2.83766">
        <ele>92.7</ele>
        <time>2011-05-01T14:18:38Z</time>
      </trkpt>
      <trkpt lat="48.39417" lon="2.83567">
        <ele>94</ele>
        <time>2011-05-01T14:18:38Z</time>
      </trkpt>
      <trkpt lat="48.39444" lon="2.83441">
        <ele>94</ele>
        <time>2011-05-01T14:18:38Z</time>
      </trkpt>
      <trkpt lat="48.39411" lon="2.8335">
        <ele>89.6</ele>
        <time>2011-05-01T14:18:38Z</time>
      </trkpt>
      <trkpt lat="48.3937" lon="2.83195">
        <ele>84.9</ele>
        <time>2011-05-01T14:18:38Z</time>
      </trkpt>
      <trkpt lat="48.39366" lon="2.83135">
        <ele>83.3</ele>
        <time>2011-05-01T14:18:38Z</time>
      </trkpt>
      <trkpt lat="48.39399" lon="2.8293">
        <ele>81.1</ele>
        <time>2011-05-01T14:18:38Z</time>
      </trkpt>
      <trkpt lat="48.3937" lon="2.82914">
        <ele>76.1</ele>
        <time>2011-05-01T14:18:38Z</time>
      </trkpt>
      <trkpt lat="48.39348" lon="2.82925">
        <ele>72.9</ele>
        <time>2011-05-01T14:18:38Z</time>
      </trkpt>
      <trkpt lat="48.39315" lon="2.83037">
        <ele>73.9</ele>
        <time>2011-05-01T14:18:38Z</time>
      </trkpt>
      <trkpt lat="48.39307" lon="2.83032">
        <ele>72.4</ele>
        <time>2011-05-01T14:18:38Z</time>
      </trkpt>
      <trkpt lat="48.39327" lon="2.82873">
        <ele>67.4</ele>
        <time>2011-05-01T14:18:38Z</time>
      </trkpt>
      <trkpt lat="48.39364" lon="2.82739">
        <ele>65.9</ele>
        <time>2011-05-01T14:18:38Z</time>
      </trkpt>
      <trkpt lat="48.39371" lon="2.82565">
        <ele>60.6</ele>
        <time>2011-05-01T14:18:38Z</time>
      </trkpt>
      <trkpt lat="48.3944" lon="2.82555">
        <ele>66.3</ele>
        <time>2011-05-01T14:18:38Z</time>
      </trkpt>
      <trkpt lat="48.3944" lon="2.82337">
        <ele>86.2</ele>
        <time>2011-05-01T14:18:38Z</time>
      </trkpt>
      <trkpt lat="48.39451" lon="2.8221">
        <ele>90</ele>
        <time>2011-05-01T14:18:38Z</time>
      </trkpt>
      <trkpt lat="48.3946" lon="2.8195">
        <ele>101.1</ele>
        <time>2011-05-01T14:18:38Z</time>
      </trkpt>
      <trkpt lat="48.39457" lon="2.81797">
        <ele>101.7</ele>
        <time>2011-05-01T14:18:38Z</time>
      </trkpt>
      <trkpt lat="48.39457" lon="2.81601">
        <ele>107</ele>
        <time>2011-05-01T14:18:38Z</time>
      </trkpt>
      <trkpt lat="48.39425" lon="2.81383">
        <ele>109.9</ele>
        <time>2011-05-01T14:18:38Z</time>
      </trkpt>
      <trkpt lat="48.39399" lon="2.81252">
        <ele>107.7</ele>
        <time>2011-05-01T14:18:38Z</time>
      </trkpt>
      <trkpt lat="48.39353" lon="2.81281">
        <ele>101.3</ele>
        <time>2011-05-01T14:18:38Z</time>
      </trkpt>
      <trkpt lat="48.3933" lon="2.8123">
        <ele>97.9</ele>
        <time>2011-05-01T14:18:38Z</time>
      </trkpt>
      <trkpt lat="48.39246" lon="2.81025">
        <ele>89.1</ele>
        <time>2011-05-01T14:18:38Z</time>
      </trkpt>
      <trkpt lat="48.39159" lon="2.8078">
        <ele>83.9</ele>
        <time>2011-05-01T14:18:38Z</time>
      </trkpt>
      <trkpt lat="48.39136" lon="2.80673">
        <ele>81.5</ele>
        <time>2011-05-01T14:18:38Z</time>
      </trkpt>
      <trkpt lat="48.39137" lon="2.80623">
        <ele>79.6</ele>
        <time>2011-05-01T14:18:38Z</time>
      </trkpt>
      <trkpt lat="48.3919" lon="2.80581">
        <ele>78.6</ele>
        <time>2011-05-01T14:18:38Z</time>
      </trkpt>
      <trkpt lat="48.39226" lon="2.8056">
        <ele>77.1</ele>
        <time>2011-05-01T14:18:38Z</time>
      </trkpt>
      <trkpt lat="48.3923" lon="2.80531">
        <ele>75.6</ele>
        <time>2011-05-01T14:18:38Z</time>
      </trkpt>
      <trkpt lat="48.39292" lon="2.80507">
        <ele>75.3</ele>
        <time>2011-05-01T14:18:38Z</time>
      </trkpt>
      <trkpt lat="48.39323" lon="2.80536">
        <ele>77.4</ele>
        <time>2011-05-01T14:18:38Z</time>
      </trkpt>
      <trkpt lat="48.39341" lon="2.806">
        <ele>81</ele>
        <time>2011-05-01T14:18:38Z</time>
      </trkpt>
      <trkpt lat="48.39389" lon="2.80586">
        <ele>81.5</ele>
        <time>2011-05-01T14:18:38Z</time>
      </trkpt>
      <trkpt lat="48.39446" lon="2.80543">
        <ele>80.6</ele>
        <time>2011-05-01T14:18:38Z</time>
      </trkpt>
      <trkpt lat="48.39489" lon="2.80526">
        <ele>80.4</ele>
        <time>2011-05-01T14:18:38Z</time>
      </trkpt>
      <trkpt lat="48.39514" lon="2.80525">
        <ele>80.7</ele>
        <time>2011-05-01T14:18:38Z</time>
      </trkpt>
      <trkpt lat="48.39525" lon="2.80567">
        <ele>83.1</ele>
        <time>2011-05-01T14:18:38Z</time>
      </trkpt>
      <trkpt lat="48.39668" lon="2.80509">
        <ele>81.3</ele>
        <time>2011-05-01T14:18:38Z</time>
      </trkpt>
      <trkpt lat="48.3975" lon="2.80488">
        <ele>84</ele>
        <time>2011-05-01T14:18:38Z</time>
      </trkpt>
      <trkpt lat="48.39828" lon="2.80507">
        <ele>88.9</ele>
        <time>2011-05-01T14:18:38Z</time>
      </trkpt>
      <trkpt lat="48.39844" lon="2.80622">
        <ele>91.9</ele>
        <time>2011-05-01T14:18:38Z</time>
      </trkpt>
      <trkpt lat="48.39913" lon="2.80603">
        <ele>93.8</ele>
        <time>2011-05-01T14:18:38Z</time>
      </trkpt>
      <trkpt lat="48.39952" lon="2.80583">
        <ele>92.1</ele>
        <time>2011-05-01T14:18:38Z</time>
      </trkpt>
      <trkpt lat="48.40017" lon="2.80517">
        <ele>89.8</ele>
        <time>2011-05-01T14:18:38Z</time>
      </trkpt>
      <trkpt lat="48.40142" lon="2.80468">
        <ele>93.3</ele>
        <time>2011-05-01T14:18:38Z</time>
      </trkpt>
      <trkpt lat="48.40219" lon="2.80443">
        <ele>94.3</ele>
        <time>2011-05-01T14:18:38Z</time>
      </trkpt>
      <trkpt lat="48.40281" lon="2.8043">
        <ele>94.6</ele>
        <time>2011-05-01T14:18:38Z</time>
      </trkpt>
      <trkpt lat="48.40374" lon="2.80384">
        <ele>94</ele>
        <time>2011-05-01T14:18:38Z</time>
      </trkpt>
      <trkpt lat="48.40418" lon="2.80337">
        <ele>92.2</ele>
        <time>2011-05-01T14:18:38Z</time>
      </trkpt>
      <trkpt lat="48.4044" lon="2.80305">
        <ele>91.1</ele>
        <time>2011-05-01T14:18:38Z</time>
      </trkpt>
      <trkpt lat="48.40578" lon="2.80236">
        <ele>90.2</ele>
        <time>2011-05-01T14:18:38Z</time>
      </trkpt>
      <trkpt lat="48.40638" lon="2.80188">
        <ele>91</ele>
        <time>2011-05-01T14:18:38Z</time>
      </trkpt>
      <trkpt lat="48.4068" lon="2.80222">
        <ele>95.7</ele>
        <time>2011-05-01T14:18:38Z</time>
      </trkpt>
      <trkpt lat="48.4074" lon="2.80401">
        <ele>106.3</ele>
        <time>2011-05-01T14:18:38Z</time>
      </trkpt>
      <trkpt lat="48.40748" lon="2.80477">
        <ele>108.6</ele>
        <time>2011-05-01T14:18:38Z</time>
      </trkpt>
      <trkpt lat="48.40769" lon="2.80547">
        <ele>111.7</ele>
        <time>2011-05-01T14:18:38Z</time>
      </trkpt>
      <trkpt lat="48.40823" lon="2.80602">
        <ele>115.2</ele>
        <time>2011-05-01T14:18:38Z</time>
      </trkpt>
      <trkpt lat="48.40868" lon="2.80737">
        <ele>114.7</ele>
        <time>2011-05-01T14:18:38Z</time>
      </trkpt>
      <trkpt lat="48.40921" lon="2.80732">
        <ele>114.2</ele>
        <time>2011-05-01T14:18:38Z</time>
      </trkpt>
      <trkpt lat="48.40942" lon="2.8068">
        <ele>112.6</ele>
        <time>2011-05-01T14:18:38Z</time>
      </trkpt>
      <trkpt lat="48.40997" lon="2.80619">
        <ele>113.5</ele>
        <time>2011-05-01T14:18:38Z</time>
      </trkpt>
      <trkpt lat="48.41001" lon="2.80554">
        <ele>114.3</ele>
        <time>2011-05-01T14:18:38Z</time>
      </trkpt>
      <trkpt lat="48.40995" lon="2.80522">
        <ele>114.7</ele>
        <time>2011-05-01T14:18:38Z</time>
      </trkpt>
      <trkpt lat="48.4109" lon="2.80224">
        <ele>107.5</ele>
        <time>2011-05-01T14:18:38Z</time>
      </trkpt>
      <trkpt lat="48.41153" lon="2.80094">
        <ele>101</ele>
        <time>2011-05-01T14:18:38Z</time>
      </trkpt>
      <trkpt lat="48.41191" lon="2.8007">
        <ele>98.6</ele>
        <time>2011-05-01T14:18:38Z</time>
      </trkpt>
      <trkpt lat="48.41198" lon="2.79995">
        <ele>98.8</ele>
        <time>2011-05-01T14:18:38Z</time>
      </trkpt>
      <trkpt lat="48.41238" lon="2.79905">
        <ele>107.4</ele>
        <time>2011-05-01T14:18:38Z</time>
      </trkpt>
      <trkpt lat="48.41325" lon="2.79799">
        <ele>112.5</ele>
        <time>2011-05-01T14:18:38Z</time>
      </trkpt>
      <trkpt lat="48.41414" lon="2.79693">
        <ele>113.9</ele>
        <time>2011-05-01T14:18:38Z</time>
      </trkpt>
      <trkpt lat="48.41491" lon="2.79567">
        <ele>113.7</ele>
        <time>2011-05-01T14:18:38Z</time>
      </trkpt>
      <trkpt lat="48.41588" lon="2.79575">
        <ele>115.7</ele>
        <time>2011-05-01T14:18:38Z</time>
      </trkpt>
      <trkpt lat="48.41621" lon="2.79316">
        <ele>114.2</ele>
        <time>2011-05-01T14:18:38Z</time>
      </trkpt>
      <trkpt lat="48.41623" lon="2.79279">
        <ele>114.4</ele>
        <time>2011-05-01T14:18:38Z</time>
      </trkpt>
      <trkpt lat="48.41664" lon="2.79168">
        <ele>117</ele>
        <time>2011-05-01T14:18:38Z</time>
      </trkpt>
      <trkpt lat="48.41669" lon="2.79037">
        <ele>118.1</ele>
        <time>2011-05-01T14:18:38Z</time>
      </trkpt>
      <trkpt lat="48.41692" lon="2.78947">
        <ele>117.1</ele>
        <time>2011-05-01T14:18:38Z</time>
      </trkpt>
      <trkpt lat="48.417" lon="2.78802">
        <ele>114.9</ele>
        <time>2011-05-01T14:18:38Z</time>
      </trkpt>
      <trkpt lat="48.41731" lon="2.78567">
        <ele>118.5</ele>
        <time>2011-05-01T14:18:38Z</time>
      </trkpt>
      <trkpt lat="48.41771" lon="2.78405">
        <ele>121.2</ele>
        <time>2011-05-01T14:18:38Z</time>
      </trkpt>
      <trkpt lat="48.41796" lon="2.7835">
        <ele>120.5</ele>
        <time>2011-05-01T14:18:38Z</time>
      </trkpt>
      <trkpt lat="48.41789" lon="2.78273">
        <ele>119.6</ele>
        <time>2011-05-01T14:18:38Z</time>
      </trkpt>
      <trkpt lat="48.41758" lon="2.78128">
        <ele>119</ele>
        <time>2011-05-01T14:18:38Z</time>
      </trkpt>
      <trkpt lat="48.4176" lon="2.77933">
        <ele>122.5</ele>
        <time>2011-05-01T14:18:38Z</time>
      </trkpt>
      <trkpt lat="48.41755" lon="2.77816">
        <ele>127.2</ele>
        <time>2011-05-01T14:18:38Z</time>
      </trkpt>
      <trkpt lat="48.41831" lon="2.77662">
        <ele>120.3</ele>
        <time>2011-05-01T14:18:38Z</time>
      </trkpt>
      <trkpt lat="48.41865" lon="2.77582">
        <ele>116.8</ele>
        <time>2011-05-01T14:18:38Z</time>
      </trkpt>
      <trkpt lat="48.41852" lon="2.77534">
        <ele>119.1</ele>
        <time>2011-05-01T14:18:38Z</time>
      </trkpt>
      <trkpt lat="48.41819" lon="2.77428">
        <ele>126.2</ele>
        <time>2011-05-01T14:18:38Z</time>
      </trkpt>
      <trkpt lat="48.4178" lon="2.7736">
        <ele>132.8</ele>
        <time>2011-05-01T14:18:38Z</time>
      </trkpt>
      <trkpt lat="48.41771" lon="2.77208">
        <ele>133.4</ele>
        <time>2011-05-01T14:18:38Z</time>
      </trkpt>
      <trkpt lat="48.41757" lon="2.7712">
        <ele>140.7</ele>
        <time>2011-05-01T14:18:38Z</time>
      </trkpt>
      <trkpt lat="48.41763" lon="2.76935">
        <ele>149.6</ele>
        <time>2011-05-01T14:18:38Z</time>
      </trkpt>
      <trkpt lat="48.41751" lon="2.76856">
        <ele>150.2</ele>
        <time>2011-05-01T14:18:38Z</time>
      </trkpt>
      <trkpt lat="48.41737" lon="2.76788">
        <ele>149</ele>
        <time>2011-05-01T14:18:38Z</time>
      </trkpt>
      <trkpt lat="48.41738" lon="2.76752">
        <ele>148.6</ele>
        <time>2011-05-01T14:18:38Z</time>
      </trkpt>
      <trkpt lat="48.4176" lon="2.76721">
        <ele>148.8</ele>
        <time>2011-05-01T14:18:38Z</time>
      </trkpt>
      <trkpt lat="48.41721" lon="2.76691">
        <ele>146.5</ele>
        <time>2011-05-01T14:18:38Z</time>
      </trkpt>
      <trkpt lat="48.41666" lon="2.76711">
        <ele>144.1</ele>
        <time>2011-05-01T14:18:38Z</time>
      </trkpt>
      <trkpt lat="48.41651" lon="2.76664">
        <ele>141.7</ele>
        <time>2011-05-01T14:18:38Z</time>
      </trkpt>
      <trkpt lat="48.41639" lon="2.7661">
        <ele>142</ele>
        <time>2011-05-01T14:18:38Z</time>
      </trkpt>
      <trkpt lat="48.41644" lon="2.76511">
        <ele>141.1</ele>
        <time>2011-05-01T14:18:38Z</time>
      </trkpt>
      <trkpt lat="48.41645" lon="2.76264">
        <ele>119.7</ele>
        <time>2011-05-01T14:18:38Z</time>
      </trkpt>
      <trkpt lat="48.41657" lon="2.76221">
        <ele>116.1</ele>
        <time>2011-05-01T14:18:38Z</time>
      </trkpt>
      <trkpt lat="48.41667" lon="2.76199">
        <ele>115</ele>
        <time>2011-05-01T14:18:38Z</time>
      </trkpt>
      <trkpt lat="48.41644" lon="2.7617">
        <ele>111.9</ele>
        <time>2011-05-01T14:18:38Z</time>
      </trkpt>
      <trkpt lat="48.41633" lon="2.76127">
        <ele>106.5</ele>
        <time>2011-05-01T14:18:38Z</time>
      </trkpt>
      <trkpt lat="48.41681" lon="2.76093">
        <ele>105.9</ele>
        <time>2011-05-01T14:18:38Z</time>
      </trkpt>
      <trkpt lat="48.41697" lon="2.76062">
        <ele>104.6</ele>
        <time>2011-05-01T14:18:38Z</time>
      </trkpt>
      <trkpt lat="48.41763" lon="2.76064">
        <ele>107.7</ele>
        <time>2011-05-01T14:18:38Z</time>
      </trkpt>
      <trkpt lat="48.41814" lon="2.76013">
        <ele>104.6</ele>
        <time>2011-05-01T14:18:38Z</time>
      </trkpt>
      <trkpt lat="48.41833" lon="2.75917">
        <ele>100</ele>
        <time>2011-05-01T14:18:38Z</time>
      </trkpt>
      <trkpt lat="48.41946" lon="2.75884">
        <ele>90.9</ele>
        <time>2011-05-01T14:18:38Z</time>
      </trkpt>
      <trkpt lat="48.42" lon="2.75878">
        <ele>87.6</ele>
        <time>2011-05-01T14:18:38Z</time>
      </trkpt>
      <trkpt lat="48.42074" lon="2.7584">
        <ele>85.2</ele>
        <time>2011-05-01T14:18:38Z</time>
      </trkpt>
      <trkpt lat="48.42162" lon="2.75829">
        <ele>84</ele>
        <time>2011-05-01T14:18:38Z</time>
      </trkpt>
      <trkpt lat="48.42215" lon="2.75818">
        <ele>84.2</ele>
        <time>2011-05-01T14:18:38Z</time>
      </trkpt>
      <trkpt lat="48.4222" lon="2.75651">
        <ele>79.2</ele>
        <time>2011-05-01T14:18:38Z</time>
      </trkpt>
      <trkpt lat="48.42307" lon="2.7565">
        <ele>79.7</ele>
        <time>2011-05-01T14:18:38Z</time>
      </trkpt>
      <trkpt lat="48.42314" lon="2.754">
        <ele>65.8</ele>
        <time>2011-05-01T14:18:38Z</time>
      </trkpt>
      <trkpt lat="48.42345" lon="2.75369">
        <ele>63.6</ele>
        <time>2011-05-01T14:18:38Z</time>
      </trkpt>
      <trkpt lat="48.42483" lon="2.75373">
        <ele>62.3</ele>
        <time>2011-05-01T14:18:38Z</time>
      </trkpt>
      <trkpt lat="48.42541" lon="2.75356">
        <ele>61.1</ele>
        <time>2011-05-01T14:18:38Z</time>
      </trkpt>
      <trkpt lat="48.42646" lon="2.75324">
        <ele>61.4</ele>
        <time>2011-05-01T14:18:38Z</time>
      </trkpt>
      <trkpt lat="48.42766" lon="2.75286">
        <ele>56.4</ele>
        <time>2011-05-01T14:18:38Z</time>
      </trkpt>
      <trkpt lat="48.42822" lon="2.75127">
        <ele>54.2</ele>
        <time>2011-05-01T14:18:38Z</time>
      </trkpt>
      <trkpt lat="48.42922" lon="2.74835">
        <ele>46.1</ele>
        <time>2011-05-01T14:18:38Z</time>
      </trkpt>
      <trkpt lat="48.42959" lon="2.74727">
        <ele>47.2</ele>
        <time>2011-05-01T14:18:38Z</time>
      </trkpt>
      <trkpt lat="48.42956" lon="2.74508">
        <ele>43.1</ele>
        <time>2011-05-01T14:18:38Z</time>
      </trkpt>
      <trkpt lat="48.4295" lon="2.7438">
        <ele>52.7</ele>
        <time>2011-05-01T14:18:38Z</time>
      </trkpt>
      <trkpt lat="48.42975" lon="2.74299">
        <ele>58.5</ele>
        <time>2011-05-01T14:18:38Z</time>
      </trkpt>
      <trkpt lat="48.43022" lon="2.7429">
        <ele>59.9</ele>
        <time>2011-05-01T14:18:38Z</time>
      </trkpt>
      <trkpt lat="48.43137" lon="2.74242">
        <ele>70</ele>
        <time>2011-05-01T14:18:38Z</time>
      </trkpt>
      <trkpt lat="48.43193" lon="2.74226">
        <ele>73.1</ele>
        <time>2011-05-01T14:18:38Z</time>
      </trkpt>
      <trkpt lat="48.43275" lon="2.74227">
        <ele>77.1</ele>
        <time>2011-05-01T14:18:38Z</time>
      </trkpt>
      <trkpt lat="48.43315" lon="2.74186">
        <ele>86.8</ele>
        <time>2011-05-01T14:18:38Z</time>
      </trkpt>
      <trkpt lat="48.43463" lon="2.74277">
        <ele>82.9</ele>
        <time>2011-05-01T14:18:38Z</time>
      </trkpt>
      <trkpt lat="48.43522" lon="2.74321">
        <ele>82.8</ele>
        <time>2011-05-01T14:18:38Z</time>
      </trkpt>
      <trkpt lat="48.43641" lon="2.74335">
        <ele>89.2</ele>
        <time>2011-05-01T14:18:38Z</time>
      </trkpt>
      <trkpt lat="48.43707" lon="2.74355">
        <ele>89.4</ele>
        <time>2011-05-01T14:18:38Z</time>
      </trkpt>
      <trkpt lat="48.4377" lon="2.74391">
        <ele>89</ele>
        <time>2011-05-01T14:18:38Z</time>
      </trkpt>
      <trkpt lat="48.43852" lon="2.74476">
        <ele>84.1</ele>
        <time>2011-05-01T14:18:38Z</time>
      </trkpt>
      <trkpt lat="48.43966" lon="2.74543">
        <ele>87.2</ele>
        <time>2011-05-01T14:18:38Z</time>
      </trkpt>
      <trkpt lat="48.44091" lon="2.74634">
        <ele>86.4</ele>
        <time>2011-05-01T14:18:38Z</time>
      </trkpt>
      <trkpt lat="48.44238" lon="2.74735">
        <ele>85.5</ele>
        <time>2011-05-01T14:18:38Z</time>
      </trkpt>
      <trkpt lat="48.44366" lon="2.74833">
        <ele>85.6</ele>
        <time>2011-05-01T14:18:38Z</time>
      </trkpt>
      <trkpt lat="48.44465" lon="2.74899">
        <ele>76.9</ele>
        <time>2011-05-01T14:18:38Z</time>
      </trkpt>
      <trkpt lat="48.44438" lon="2.7498">
        <ele>62.7</ele>
        <time>2011-05-01T14:18:38Z</time>
      </trkpt>
      <trkpt lat="48.44593" lon="2.75131">
        <ele>57.8</ele>
        <time>2011-05-01T14:18:38Z</time>
      </trkpt>
      <trkpt lat="48.44806" lon="2.75338">
        <ele>53.7</ele>
        <time>2011-05-01T14:18:38Z</time>
      </trkpt>
      <trkpt lat="48.44886" lon="2.75453">
        <ele>51.9</ele>
        <time>2011-05-01T14:18:38Z</time>
      </trkpt>
      <trkpt lat="48.44975" lon="2.75563">
        <ele>49</ele>
        <time>2011-05-01T14:18:38Z</time>
      </trkpt>
      <trkpt lat="48.45006" lon="2.75633">
        <ele>47</ele>
        <time>2011-05-01T14:18:38Z</time>
      </trkpt>
      <trkpt lat="48.45032" lon="2.75751">
        <ele>46</ele>
        <time>2011-05-01T14:18:38Z</time>
      </trkpt>
      <trkpt lat="48.45139" lon="2.7586">
        <ele>44.2</ele>
        <time>2011-05-01T14:18:38Z</time>
      </trkpt>
      <trkpt lat="48.45183" lon="2.75882">
        <ele>43</ele>
        <time>2011-05-01T14:18:38Z</time>
      </trkpt>
      <trkpt lat="48.45279" lon="2.76036">
        <ele>44.5</ele>
        <time>2011-05-01T14:18:38Z</time>
      </trkpt>
      <trkpt lat="48.45387" lon="2.76308">
        <ele>45.6</ele>
        <time>2011-05-01T14:18:38Z</time>
      </trkpt>
      <trkpt lat="48.45448" lon="2.76509">
        <ele>42</ele>
        <time>2011-05-01T14:18:38Z</time>
      </trkpt>
      <trkpt lat="48.45525" lon="2.76653">
        <ele>41.9</ele>
        <time>2011-05-01T14:18:38Z</time>
      </trkpt>
      <trkpt lat="48.45658" lon="2.76802">
        <ele>41.1</ele>
        <time>2011-05-01T14:18:38Z</time>
      </trkpt>
      <trkpt lat="48.45744" lon="2.76884">
        <ele>42.4</ele>
        <time>2011-05-01T14:18:38Z</time>
      </trkpt>
      <trkpt lat="48.45965" lon="2.76976">
        <ele>44</ele>
        <time>2011-05-01T14:18:38Z</time>
      </trkpt>
      <trkpt lat="48.46155" lon="2.76995">
        <ele>47.7</ele>
        <time>2011-05-01T14:18:38Z</time>
      </trkpt>
      <trkpt lat="48.46335" lon="2.77011">
        <ele>43.9</ele>
        <time>2011-05-01T14:18:38Z</time>
      </trkpt>
      <trkpt lat="48.46478" lon="2.77061">
        <ele>48.8</ele>
        <time>2011-05-01T14:18:38Z</time>
      </trkpt>
      <trkpt lat="48.46656" lon="2.77083">
        <ele>49</ele>
        <time>2011-05-01T14:18:38Z</time>
      </trkpt>
      <trkpt lat="48.46909" lon="2.77018">
        <ele>49.8</ele>
        <time>2011-05-01T14:18:38Z</time>
      </trkpt>
      <trkpt lat="48.47045" lon="2.7697">
        <ele>47.4</ele>
        <time>2011-05-01T14:18:38Z</time>
      </trkpt>
      <trkpt lat="48.47181" lon="2.76882">
        <ele>50.3</ele>
        <time>2011-05-01T14:18:38Z</time>
      </trkpt>
      <trkpt lat="48.47378" lon="2.76787">
        <ele>50.3</ele>
        <time>2011-05-01T14:18:38Z</time>
      </trkpt>
      <trkpt lat="48.47566" lon="2.76663">
        <ele>50.2</ele>
        <time>2011-05-01T14:18:38Z</time>
      </trkpt>
      <trkpt lat="48.47789" lon="2.76472">
        <ele>49.2</ele>
        <time>2011-05-01T14:18:38Z</time>
      </trkpt>
      <trkpt lat="48.47942" lon="2.76314">
        <ele>47.6</ele>
        <time>2011-05-01T14:18:38Z</time>
      </trkpt>
      <trkpt lat="48.48156" lon="2.76032">
        <ele>42.5</ele>
        <time>2011-05-01T14:18:38Z</time>
      </trkpt>
      <trkpt lat="48.48247" lon="2.75873">
        <ele>55</ele>
        <time>2011-05-01T14:18:38Z</time>
      </trkpt>
      <trkpt lat="48.48316" lon="2.75699">
        <ele>52.9</ele>
        <time>2011-05-01T14:18:38Z</time>
      </trkpt>
      <trkpt lat="48.48401" lon="2.75508">
        <ele>49.5</ele>
        <time>2011-05-01T14:18:38Z</time>
      </trkpt>
      <trkpt lat="48.4849" lon="2.75224">
        <ele>48.8</ele>
        <time>2011-05-01T14:18:38Z</time>
      </trkpt>
      <trkpt lat="48.48433" lon="2.75146">
        <ele>48.9</ele>
        <time>2011-05-01T14:18:38Z</time>
      </trkpt>
      <trkpt lat="48.48442" lon="2.75142">
        <ele>48.2</ele>
        <time>2011-05-01T14:18:38Z</time>
      </trkpt>
      <trkpt lat="48.48651" lon="2.75253">
        <ele>54.2</ele>
        <time>2011-05-01T14:18:38Z</time>
      </trkpt>
    </trkseg>
  </trk>
</gpx>